When you browse on this site, cookies collect data to enhance your experience and personalize the content and advertising you see.
Visit our Privacy Policy to learn more. By continuing to use the site, you agree to this use of cookies and data.
  • en France
  • Liste des pays
  • À 7 jours
  • Température de l'eau
  • Carte météo
  • Widgets météo
  • user-avatar
    Se connecter

    Météo par heure à Chorley

    Ce jour, 19 Août, Lundi

    Heure Température Précipitation Vent Pression Humidité
    00:00 +13°C° 0 mm 5 m/s 742 mmHg 88%
    01:00 +13°C° 0.4 mm 5 m/s 742 mmHg 89%
    02:00 +12°C° 0.4 mm 5 m/s 742 mmHg 89%
    03:00 +12°C° 0.4 mm 5 m/s 743 mmHg 89%
    04:00 +12°C° 0.1 mm 4 m/s 743 mmHg 88%
    05:00 +12°C° 0.1 mm 4 m/s 744 mmHg 88%
    06:00 +12°C° 0.1 mm 4 m/s 744 mmHg 88%
    07:00 +13°C° 0.2 mm 4 m/s 744 mmHg 84%
    08:00 +14°C° 0.2 mm 5 m/s 745 mmHg 80%
    09:00 +14°C° 0.2 mm 5 m/s 745 mmHg 76%
    10:00 +15°C° 0.4 mm 5 m/s 746 mmHg 73%
    11:00 +16°C° 0.4 mm 6 m/s 746 mmHg 70%
    12:00 +16°C° 0.4 mm 6 m/s 746 mmHg 67%
    13:00 +16°C° 0.2 mm 6 m/s 746 mmHg 66%
    14:00 +16°C° 0.2 mm 6 m/s 747 mmHg 65%
    15:00 +16°C° 0.2 mm 7 m/s 747 mmHg 63%
    16:00 +16°C° 0.1 mm 6 m/s 747 mmHg 66%
    17:00 +15°C° 0.1 mm 6 m/s 747 mmHg 69%
    18:00 +15°C° 0.1 mm 6 m/s 748 mmHg 72%
    19:00 +14°C° 0.1 mm 5 m/s 748 mmHg 74%
    20:00 +13°C° 0.1 mm 5 m/s 749 mmHg 77%
    21:00 +12°C° 0.1 mm 4 m/s 749 mmHg 80%
    22:00 +12°C° 0.1 mm 4 m/s 749 mmHg 80%
    23:00 +12°C° 0.1 mm 4 m/s 749 mmHg 81%

    Demain, 20 Août, Mardi

    Heure Température Précipitation Vent Pression Humidité
    00:00 +11°C° 0.1 mm 4 m/s 750 mmHg 82%
    01:00 +11°C° 0 mm 4 m/s 750 mmHg 82%
    02:00 +11°C° 0 mm 4 m/s 750 mmHg 83%
    03:00 +11°C° 0 mm 4 m/s 750 mmHg 83%
    04:00 +10°C° 0.2 mm 5 m/s 751 mmHg 84%
    05:00 +10°C° 0.2 mm 5 m/s 751 mmHg 85%
    06:00 +10°C° 0.2 mm 6 m/s 751 mmHg 86%
    07:00 +10°C° 0.7 mm 6 m/s 751 mmHg 86%
    08:00 +11°C° 0.7 mm 6 m/s 752 mmHg 85%
    09:00 +11°C° 0.7 mm 6 m/s 752 mmHg 85%
    10:00 +13°C° 0.1 mm 6 m/s 753 mmHg 81%
    11:00 +13°C° 0.1 mm 6 m/s 753 mmHg 77%
    12:00 +14°C° 0.1 mm 6 m/s 753 mmHg 73%
    13:00 +14°C° 0 mm 6 m/s 754 mmHg 70%
    14:00 +15°C° 0 mm 6 m/s 754 mmHg 67%
    15:00 +15°C° 0 mm 6 m/s 754 mmHg 64%
    16:00 +15°C° 0 mm 5 m/s 754 mmHg 67%
    17:00 +15°C° 0 mm 4 m/s 754 mmHg 71%
    18:00 +14°C° 0 mm 3 m/s 754 mmHg 74%
    19:00 +14°C° 0 mm 3 m/s 755 mmHg 77%
    20:00 +13°C° 0 mm 3 m/s 755 mmHg 80%
    21:00 +14°C° 0 mm 2 m/s 755 mmHg 83%
    22:00 +14°C° 0.1 mm 2 m/s 755 mmHg 84%
    23:00 +14°C° 0.1 mm 2 m/s 755 mmHg 86%

    Après-demain, 21 Août, Mercredi

    Heure Température Précipitation Vent Pression Humidité
    00:00 +14°C° 0.1 mm 2 m/s 755 mmHg 88%
    01:00 +14°C° 0.1 mm 2 m/s 755 mmHg 89%
    02:00 +13°C° 0.1 mm 2 m/s 755 mmHg 89%
    03:00 +13°C° 0.1 mm 2 m/s 755 mmHg 90%
    04:00 +13°C° 0 mm 2 m/s 755 mmHg 90%
    05:00 +13°C° 0 mm 2 m/s 755 mmHg 90%
    06:00 +13°C° 0 mm 2 m/s 755 mmHg 90%
    07:00 +13°C° 0 mm 3 m/s 755 mmHg 86%
    08:00 +14°C° 0 mm 3 m/s 755 mmHg 81%
    09:00 +15°C° 0 mm 4 m/s 755 mmHg 76%
    10:00 +17°C° 0.4 mm 4 m/s 755 mmHg 76%
    11:00 +17°C° 0.4 mm 4 m/s 755 mmHg 76%
    12:00 +16°C° 0.4 mm 5 m/s 754 mmHg 76%
    13:00 +17°C° 0.5 mm 5 m/s 754 mmHg 74%
    14:00 +17°C° 0.5 mm 5 m/s 754 mmHg 71%
    15:00 +19°C° 0.5 mm 6 m/s 754 mmHg 68%
    16:00 +17°C° 0.1 mm 5 m/s 753 mmHg 70%
    17:00 +16°C° 0.1 mm 5 m/s 753 mmHg 72%
    18:00 +17°C° 0.1 mm 4 m/s 753 mmHg 74%
    19:00 +15°C° 0.1 mm 4 m/s 753 mmHg 77%
    20:00 +14°C° 0.1 mm 4 m/s 753 mmHg 79%
    21:00 +13°C° 0.1 mm 4 m/s 753 mmHg 81%
    22:00 +13°C° 0.2 mm 4 m/s 753 mmHg 82%
    23:00 +13°C° 0.2 mm 4 m/s 752 mmHg 83%

    22 Août, Jeudi

    Heure Température Précipitation Vent Pression Humidité
    00:00 +13°C° 0.2 mm 4 m/s 752 mmHg 84%
    01:00 +13°C° 0.4 mm 4 m/s 752 mmHg 86%
    02:00 +13°C° 0.4 mm 4 m/s 752 mmHg 87%
    03:00 +13°C° 0.4 mm 4 m/s 752 mmHg 89%
    04:00 +13°C° 0.1 mm 4 m/s 752 mmHg 88%
    05:00 +12°C° 0.1 mm 4 m/s 752 mmHg 88%
    06:00 +12°C° 0.1 mm 3 m/s 752 mmHg 88%
    07:00 +13°C° 0 mm 4 m/s 752 mmHg 82%
    08:00 +14°C° 0 mm 4 m/s 753 mmHg 76%
    09:00 +15°C° 0 mm 4 m/s 753 mmHg 70%
    10:00 +15°C° 0 mm 4 m/s 753 mmHg 67%
    11:00 +17°C° 0 mm 4 m/s 753 mmHg 64%
    12:00 +18°C° 0 mm 4 m/s 753 mmHg 61%
    13:00 +17°C° 0 mm 5 m/s 752 mmHg 60%
    14:00 +19°C° 0 mm 5 m/s 752 mmHg 59%
    15:00 +19°C° 0 mm 6 m/s 752 mmHg 58%
    16:00 +19°C° 0 mm 5 m/s 751 mmHg 63%
    17:00 +19°C° 0 mm 5 m/s 751 mmHg 67%
    18:00 +17°C° 0 mm 5 m/s 751 mmHg 72%
    19:00 +17°C° 0 mm 5 m/s 751 mmHg 74%
    20:00 +17°C° 0 mm 6 m/s 751 mmHg 76%
    21:00 +17°C° 0 mm 6 m/s 751 mmHg 77%
    22:00 +17°C° 0 mm 6 m/s 752 mmHg 79%
    23:00 +17°C° 0 mm 6 m/s 752 mmHg 80%

    23 Août, Vendredi

    Heure Température Précipitation Vent Pression Humidité
    00:00 +16°C° 0 mm 6 m/s 752 mmHg 82%
    01:00 +16°C° 0 mm 6 m/s 752 mmHg 82%
    02:00 +16°C° 0 mm 6 m/s 751 mmHg 82%
    03:00 +16°C° 0 mm 5 m/s 751 mmHg 82%
    04:00 +16°C° 0 mm 5 m/s 752 mmHg 84%
    05:00 +17°C° 0 mm 4 m/s 752 mmHg 86%
    06:00 +17°C° 0 mm 4 m/s 752 mmHg 88%
    07:00 +17°C° 0 mm 4 m/s 752 mmHg 86%
    08:00 +18°C° 0 mm 4 m/s 753 mmHg 83%
    09:00 +19°C° 0 mm 5 m/s 753 mmHg 81%
    10:00 +19°C° 0 mm 4 m/s 753 mmHg 80%
    11:00 +19°C° 0 mm 4 m/s 753 mmHg 80%
    12:00 +20°C° 0 mm 4 m/s 753 mmHg 79%
    13:00 +20°C° 0 mm 4 m/s 753 mmHg 78%
    14:00 +20°C° 0 mm 4 m/s 753 mmHg 76%
    15:00 +21°C° 0 mm 3 m/s 753 mmHg 75%
    16:00 +20°C° 0 mm 3 m/s 752 mmHg 76%
    17:00 +20°C° 0 mm 3 m/s 752 mmHg 76%
    18:00 +20°C° 0 mm 2 m/s 752 mmHg 77%
    19:00 +19°C° 0 mm 2 m/s 752 mmHg 79%
    20:00 +18°C° 0 mm 2 m/s 752 mmHg 82%
    21:00 +17°C° 0 mm 2 m/s 752 mmHg 84%
    22:00 +16°C° 0 mm 2 m/s 752 mmHg 85%
    23:00 +16°C° 0 mm 2 m/s 752 mmHg 87%

    24 Août, Samedi

    Heure Température Précipitation Vent Pression Humidité
    00:00 +16°C° 0 mm 2 m/s 752 mmHg 88%
    01:00 +16°C° 0 mm 2 m/s 752 mmHg 88%
    02:00 +15°C° 0 mm 2 m/s 751 mmHg 89%
    03:00 +15°C° 0 mm 2 m/s 751 mmHg 89%
    04:00 +15°C° 0 mm 2 m/s 751 mmHg 89%
    05:00 +15°C° 0 mm 2 m/s 751 mmHg 89%
    06:00 +15°C° 0 mm 2 m/s 750 mmHg 89%
    07:00 +16°C° 0 mm 2 m/s 750 mmHg 84%
    08:00 +17°C° 0 mm 2 m/s 750 mmHg 80%
    09:00 +18°C° 0 mm 2 m/s 750 mmHg 75%
    10:00 +18°C° 0 mm 2 m/s 750 mmHg 75%
    11:00 +18°C° 0 mm 2 m/s 750 mmHg 75%
    12:00 +18°C° 0 mm 2 m/s 750 mmHg 75%
    13:00 +18°C° 0.5 mm 2 m/s 749 mmHg 78%
    14:00 +18°C° 0.5 mm 2 m/s 749 mmHg 81%
    15:00 +17°C° 0.5 mm 2 m/s 749 mmHg 84%
    16:00 +18°C° 0.2 mm 1 m/s 749 mmHg 83%
    17:00 +19°C° 0.2 mm 1 m/s 748 mmHg 82%
    18:00 +17°C° 0.2 mm 0 m/s 748 mmHg 81%
    19:00 +16°C° 0 mm 0 m/s 749 mmHg 83%
    20:00 +15°C° 0 mm 0 m/s 749 mmHg 84%
    21:00 +14°C° 0 mm 0 m/s 749 mmHg 86%
    22:00 +14°C° 0 mm 0 m/s 749 mmHg 87%
    23:00 +14°C° 0 mm 0 m/s 749 mmHg 87%
    Voir plus